When you browse on this site, cookies collect data to enhance your experience and personalize the content and advertising you see.
Visit our Privacy Policy to learn more. By continuing to use the site, you agree to this use of cookies and data.
  • In Hungary
  • List of Countries
  • For 7 days
  • Water Temperature
  • Satellite Maps
  • Weather Map
  • News
  • Weather Widgets
  • user-avatar
    Login

    Hourly Weather Galezewko

    Today, 9 December, Sunday

    Time Temperature Precipitation Wind Pressure Humidity
    00:00 +3°C° 0 mm 6 mps 739 mmHg 79%
    01:00 +3°C° 0 mm 6 mps 738 mmHg 81%
    02:00 +3°C° 0 mm 6 mps 737 mmHg 81%
    03:00 +3°C° 0 mm 6 mps 736 mmHg 81%
    04:00 +2°C° 0 mm 6 mps 736 mmHg 81%
    05:00 +3°C° 0.4 mm 6 mps 735 mmHg 82%
    06:00 +3°C° 0.4 mm 6 mps 734 mmHg 83%
    07:00 +3°C° 0 mm 7 mps 733 mmHg 85%
    08:00 +4°C° 0.7 mm 7 mps 733 mmHg 84%
    09:00 +4°C° 0.7 mm 7 mps 733 mmHg 83%
    10:00 +5°C° 0.7 mm 7 mps 732 mmHg 82%
    11:00 +5°C° 0.3 mm 7 mps 733 mmHg 82%
    12:00 +5°C° 0.3 mm 7 mps 733 mmHg 81%
    13:00 +5°C° 0 mm 7 mps 733 mmHg 79%
    14:00 +5°C° 0.1 mm 7 mps 734 mmHg 80%
    15:00 +5°C° 0.1 mm 6 mps 734 mmHg 80%
    16:00 +5°C° 0.1 mm 5 mps 735 mmHg 81%
    17:00 +5°C° 0.1 mm 5 mps 735 mmHg 82%
    18:00 +5°C° 0.1 mm 5 mps 735 mmHg 83%
    19:00 +5°C° 0.1 mm 5 mps 736 mmHg 84%
    20:00 +5°C° 0.2 mm 5 mps 736 mmHg 84%
    21:00 +5°C° 0.2 mm 5 mps 736 mmHg 85%
    22:00 +5°C° 0.2 mm 5 mps 736 mmHg 85%
    23:00 +4°C° 0.3 mm 6 mps 737 mmHg 84%

    Tomorrow, 10 December, Monday

    Time Temperature Precipitation Wind Pressure Humidity
    00:00 +4°C° 0.3 mm 6 mps 737 mmHg 83%
    01:00 +4°C° 0.3 mm 7 mps 737 mmHg 82%
    02:00 +4°C° 0.3 mm 7 mps 738 mmHg 79%
    03:00 +2°C° 0.3 mm 8 mps 738 mmHg 76%
    04:00 +2°C° 0.3 mm 8 mps 739 mmHg 74%
    05:00 +3°C° 0 mm 7 mps 739 mmHg 74%
    06:00 +2°C° 0 mm 7 mps 740 mmHg 75%
    07:00 +2°C° 0 mm 6 mps 741 mmHg 76%
    08:00 +2°C° 0 mm 7 mps 741 mmHg 74%
    09:00 +2°C° 0 mm 7 mps 742 mmHg 71%
    10:00 +1°C° 0 mm 8 mps 743 mmHg 69%
    11:00 +1°C° 0 mm 8 mps 743 mmHg 67%
    12:00 +2°C° 0 mm 8 mps 743 mmHg 65%
    13:00 +2°C° 0 mm 8 mps 743 mmHg 63%
    14:00 +2°C° 0 mm 7 mps 744 mmHg 65%
    15:00 +2°C° 0 mm 7 mps 744 mmHg 67%
    16:00 +1°C° 0 mm 6 mps 744 mmHg 69%
    17:00 +1°C° 0 mm 6 mps 744 mmHg 70%
    18:00 +1°C° 0 mm 6 mps 744 mmHg 72%
    19:00 -1°C° 0 mm 6 mps 744 mmHg 74%
    20:00 -1°C° 0 mm 6 mps 744 mmHg 76%
    21:00 0°C° 0 mm 5 mps 744 mmHg 78%
    22:00 0°C° 0 mm 5 mps 744 mmHg 79%
    23:00 0°C° 0.1 mm 5 mps 744 mmHg 80%

    Day after tomorrow, 11 December, Tuesday

    Time Temperature Precipitation Wind Pressure Humidity
    00:00 0°C° 0.1 mm 5 mps 744 mmHg 81%
    01:00 0°C° 0.1 mm 5 mps 744 mmHg 81%
    02:00 0°C° 0.4 mm 5 mps 744 mmHg 82%
    03:00 0°C° 0.4 mm 5 mps 744 mmHg 83%
    04:00 0°C° 0.4 mm 5 mps 744 mmHg 83%
    05:00 0°C° 0.4 mm 4 mps 744 mmHg 85%
    06:00 0°C° 0.4 mm 4 mps 744 mmHg 86%
    07:00 +1°C° 0.4 mm 3 mps 744 mmHg 88%
    08:00 +1°C° 0.2 mm 3 mps 745 mmHg 89%
    09:00 +2°C° 0.2 mm 2 mps 745 mmHg 91%
    10:00 +2°C° 0.2 mm 2 mps 745 mmHg 92%
    11:00 +2°C° 0.2 mm 2 mps 746 mmHg 92%
    12:00 +2°C° 0.2 mm 2 mps 746 mmHg 91%
    13:00 +3°C° 0.2 mm 2 mps 746 mmHg 91%
    14:00 +2°C° 0.1 mm 2 mps 747 mmHg 92%
    15:00 +2°C° 0.1 mm 2 mps 747 mmHg 93%
    16:00 +1°C° 0.1 mm 3 mps 748 mmHg 94%
    17:00 +1°C° 0 mm 3 mps 748 mmHg 94%
    18:00 +1°C° 0 mm 3 mps 749 mmHg 94%
    19:00 +1°C° 0 mm 3 mps 749 mmHg 93%
    20:00 0°C° 0 mm 3 mps 750 mmHg 93%
    21:00 0°C° 0 mm 3 mps 750 mmHg 93%
    22:00 0°C° 0 mm 3 mps 751 mmHg 93%
    23:00 0°C° 0 mm 3 mps 751 mmHg 93%

    12 December, Wednesday

    Time Temperature Precipitation Wind Pressure Humidity
    00:00 0°C° 0 mm 3 mps 752 mmHg 93%
    01:00 -1°C° 0 mm 3 mps 752 mmHg 93%
    02:00 -1°C° 0 mm 2 mps 752 mmHg 93%
    03:00 -1°C° 0 mm 2 mps 753 mmHg 94%
    04:00 -2°C° 0 mm 2 mps 753 mmHg 94%
    05:00 -2°C° 0 mm 2 mps 753 mmHg 94%
    06:00 -2°C° 0 mm 2 mps 754 mmHg 93%
    07:00 0°C° 0 mm 1 mps 754 mmHg 93%
    08:00 0°C° 0 mm 1 mps 754 mmHg 91%
    09:00 +1°C° 0 mm 1 mps 755 mmHg 89%
    10:00 +1°C° 0 mm 1 mps 755 mmHg 88%
    11:00 +2°C° 0 mm 1 mps 755 mmHg 86%
    12:00 +2°C° 0 mm 1 mps 755 mmHg 84%
    13:00 +2°C° 0 mm 1 mps 755 mmHg 82%
    14:00 +2°C° 0 mm 1 mps 756 mmHg 85%
    15:00 +1°C° 0 mm 1 mps 756 mmHg 87%
    16:00 0°C° 0 mm 1 mps 756 mmHg 90%
    17:00 0°C° 0 mm 1 mps 756 mmHg 90%
    18:00 0°C° 0 mm 1 mps 756 mmHg 91%
    19:00 0°C° 0 mm 1 mps 756 mmHg 92%
    20:00 0°C° 0 mm 1 mps 757 mmHg 92%
    21:00 0°C° 0 mm 1 mps 757 mmHg 92%
    22:00 0°C° 0 mm 1 mps 757 mmHg 92%
    23:00 0°C° 0 mm 1 mps 757 mmHg 92%

    13 December, Thursday

    Time Temperature Precipitation Wind Pressure Humidity
    00:00 0°C° 0 mm 1 mps 757 mmHg 93%
    01:00 0°C° 0 mm 1 mps 757 mmHg 93%
    02:00 0°C° 0 mm 1 mps 757 mmHg 93%
    03:00 0°C° 0 mm 1 mps 757 mmHg 93%
    04:00 0°C° 0 mm 1 mps 757 mmHg 93%
    05:00 -2°C° 0 mm 2 mps 757 mmHg 93%
    06:00 -2°C° 0 mm 2 mps 757 mmHg 93%
    07:00 -2°C° 0 mm 2 mps 757 mmHg 93%
    08:00 -1°C° 0 mm 2 mps 757 mmHg 92%
    09:00 -1°C° 0 mm 2 mps 757 mmHg 91%
    10:00 -1°C° 0 mm 2 mps 757 mmHg 90%
    11:00 -1°C° 0 mm 2 mps 757 mmHg 88%
    12:00 +1°C° 0 mm 1 mps 757 mmHg 87%
    13:00 +2°C° 0 mm 1 mps 756 mmHg 85%
    14:00 +1°C° 0 mm 1 mps 756 mmHg 87%
    15:00 +1°C° 0 mm 1 mps 756 mmHg 89%
    16:00 +1°C° 0 mm 1 mps 756 mmHg 90%
    17:00 +1°C° 0 mm 1 mps 756 mmHg 91%
    18:00 -2°C° 0 mm 2 mps 755 mmHg 91%
    19:00 -2°C° 0 mm 2 mps 755 mmHg 92%
    20:00 -2°C° 0 mm 2 mps 755 mmHg 92%
    21:00 -2°C° 0 mm 2 mps 755 mmHg 92%
    22:00 -2°C° 0 mm 2 mps 755 mmHg 93%
    23:00 -2°C° 0 mm 2 mps 755 mmHg 92%

    14 December, Friday

    Time Temperature Precipitation Wind Pressure Humidity
    00:00 0°C° 0 mm 1 mps 755 mmHg 92%
    01:00 0°C° 0 mm 1 mps 755 mmHg 91%
    02:00 0°C° 0 mm 1 mps 755 mmHg 91%
    03:00 0°C° 0 mm 1 mps 755 mmHg 92%
    04:00 0°C° 0 mm 1 mps 755 mmHg 92%
    05:00 -1°C° 0 mm 1 mps 755 mmHg 92%
    06:00 -1°C° 0 mm 1 mps 755 mmHg 92%
    07:00 -1°C° 0 mm 1 mps 755 mmHg 92%
    08:00 -2°C° 0 mm 2 mps 755 mmHg 91%
    09:00 -2°C° 0 mm 2 mps 756 mmHg 89%
    10:00 -2°C° 0 mm 2 mps 756 mmHg 88%
    11:00 -2°C° 0 mm 2 mps 756 mmHg 87%
    12:00 -1°C° 0 mm 2 mps 756 mmHg 86%
    13:00 -1°C° 0 mm 2 mps 755 mmHg 85%
    14:00 -1°C° 0 mm 2 mps 755 mmHg 87%
    15:00 -2°C° 0 mm 2 mps 755 mmHg 89%
    16:00 -2°C° 0 mm 2 mps 755 mmHg 91%
    17:00 -2°C° 0 mm 2 mps 755 mmHg 91%
    18:00 -2°C° 0 mm 3 mps 755 mmHg 90%
    19:00 -2°C° 0 mm 3 mps 755 mmHg 90%
    20:00 -2°C° 0 mm 3 mps 755 mmHg 88%
    21:00 -2°C° 0 mm 3 mps 755 mmHg 87%
    22:00 -2°C° 0 mm 2 mps 755 mmHg 86%
    23:00 -2°C° 0 mm 2 mps 756 mmHg 87%
    Show more